Temperature
16 17 17 17 17 18 19 21 23 22 21 21 21 21 20 18 18 16 14 14 14 14 14 14 14 14 14 14 14 14 14 14 14 14 14 14 14 14 14 14 14 14 14 14 14 14 14 14 14
16 16 17 18 17 18 19 21 21 21 20 20 20 20 19 17 15 14 14 14 14 14 14 14 14 14 14 14 14 14 14 14 14 14 14 14 14 14 14 14 14 14 14 14 14 14 14 14 14
16 16 17 18 18 19 20 21 20 20 20 20 19 19 18 16 15 14 14 14 13 14 14 14 14 14 14 14 14 14 14 14 14 14 14 14 14 14 14 14 14 14 14 14 14 14 14 14 14
15 16 18 17 18 20 20 20 20 20 20 19 19 17 16 15 14 14 14 13 13 13 13 14 14 14 14 14 14 14 14 14 14 13 13 14 14 14 14 14 14 14 14 14 14 14 14 14 14
15 17 17 17 18 19 20 20 20 20 19 19 19 17 15 14 14 14 14 13 13 13 13 13 13 13 13 13 13 13 13 13 13 13 13 13 13 13 13 13 13 13 13 13 13 14 14 14 14
16 17 17 17 19 20 20 20 20 20 19 19 18 17 14 14 14 13 13 13 13 13 13 13 13 13 13 13 13 13 13 13 13 13 13 13 13 13 13 13 13 13 13 13 13 13 13 13 13
16 16 16 18 18 19 19 19 19 18 18 18 18 17 14 13 13 13 13 13 13 12 13 13 13 13 13 13 12 13 13 13 13 13 13 13 13 13 13 13 13 13 13 13 13 13 13 13 13
15 15 16 17 18 18 18 18 17 17 17 16 16 16 14 13 13 12 12 12 12 12 12 12 12 12 12 12 12 12 12 12 12 12 12 12 13 13 12 13 13 13 13 13 12 12 12 12 12
14 14 15 16 17 17 17 17 16 16 15 15 15 14 14 13 13 12 12 12 12 12 12 12 12 12 12 12 12 12 12 12 12 12 12 12 12 12 12 12 12 12 12 12 12 12 12 12 12
15 13 15 16 16 16 16 16 15 15 15 15 14 13 13 13 12 12 12 12 12 11 11 11 11 11 12 12 12 12 12 12 12 12 12 12 12 12 12 12 12 12 12 12 12 12 12 11 11
14 14 14 15 15 15 15 15 15 15 14 14 14 13 12 12 12 12 11 11 11 11 11 11 11 11 11 11 11 11 11 11 11 11 11 11 11 11 11 11 11 12 11 11 11 11 11 11 11
14 14 14 14 14 14 14 14 14 14 14 14 13 13 12 12 12 12 11 11 11 11 11 11 11 11 11 11 11 11 11 11 11 11 11 11 11 11 11 11 11 11 11 11 11 11 11 10 10
13 13 13 13 13 13 13 13 13 13 13 13 13 12 12 12 11 11 11 11 11 11 11 11 11 10 10 10 10 10 10 10 10 10 10 10 10 10 10 10 10 10 10 10 10 10 10 10 10
13 12 12 12 12 12 12 12 12 12 12 12 12 12 11 11 11 11 11 10 10 10 10 10 10 10 10 10 10 10 10 10 10 10 10 10 10 10 10 10 10 10 10 10 10 10 9 10 9
12 12 12 12 13 12 12 11 11 12 12 12 12 12 11 11 11 10 10 10 10 10 10 10 10 10 10 10 10 10 10 10 9 9 9 9 9 9 9 9 9 9 9 9 9 9 9 9 9
12 11 11 12 12 12 11 11 12 12 12 12 12 11 11 11 10 10 10 10 10 9 9 9 9 9 9 9 9 9 9 9 9 9 9 9 9 9 9 9 9 9 9 9 9 9 9 8 8
11 11 11 12 12 12 11 11 11 12 12 11 11 11 11 10 10 10 9 9 9 9 9 9 9 9 9 9 9 9 9 9 9 9 9 9 9 9 9 9 8 8 8 8 8 8 8 8 8
10 11 11 11 12 11 11 10 11 12 11 11 11 11 11 10 10 9 9 9 9 9 9 9 9 9 9 9 8 8 8 8 8 8 8 8 8 8 8 8 8 8 8 8 8 8 7 7 7
11 11 10 10 11 10 10 10 11 11 11 11 11 11 10 10 9 9 9 9 9 9 8 8 8 8 8 8 8 8 8 8 8 8 8 8 8 8 8 8 8 8 7 7 7 7 7 7 7
10 10 10 10 10 10 9 10 11 11 10 10 10 10 10 10 9 9 8 8 8 8 8 8 8 8 8 8 8 8 8 7 7 7 7 7 7 7 7 7 7 7 7 7 7 6 6 6 6
10 9 9 9 9 9 9 9 10 10 10 10 10 10 10 9 9 8 8 8 8 8 8 8 8 7 7 7 7 7 7 7 7 7 7 7 7 7 7 7 7 7 6 6 6 6 6 6 6
8 9 9 9 8 7 9 7 9 10 9 9 10 10 9 9 8 8 7 7 7 7 7 7 7 7 7 7 7 7 7 7 7 7 6 6 6 6 6 6 6 6 6 6 6 5 5 5 5
8 8 8 8 7 6 8 7 8 9 9 9 9 9 9 8 8 7 7 7 7 7 7 7 7 7 6 6 6 6 6 6 6 6 6 6 6 6 6 6 6 6 6 5 5 5 5 5 5
8 7 7 7 6 5 7 7 8 8 9 9 9 8 8 8 7 7 7 6 6 6 6 6 6 6 6 6 6 6 6 6 6 5 5 5 5 5 5 5 5 5 5 5 5 5 5 4 4
7 6 6 6 5 6 8 7 7 9 9 9 8 8 8 7 6 6 6 5 5 6 6 6 6 6 6 6 5 5 5 5 5 5 5 5 5 5 5 5 5 5 5 4 4 4 4 4 4
6 6 5 6 6 7 7 6 7 8 8 8 8 7 7 6 6 5 5 5 5 5 5 5 5 5 5 5 5 5 5 4 4 4 4 4 4 5 4 4 4 4 4 4 4 4 4 3 3
6 6 6 5 5 5 6 7 8 7 7 7 7 7 6 6 5 5 5 5 5 5 5 4 4 5 5 5 4 4 4 4 4 4 4 4 4 4 4 4 4 4 4 4 3 3 3 3 3
6 6 5 4 5 5 7 7 7 6 6 6 6 6 6 5 5 5 4 4 4 4 4 4 4 4 4 4 4 4 4 3 3 3 3 3 3 3 3 3 3 3 3 3 3 3 2 2 2
4 4 4 4 5 5 5 6 7 6 6 6 5 5 5 5 5 4 4 4 4 4 3 3 3 3 4 4 3 3 3 3 3 3 3 3 3 3 3 3 3 3 3 2 2 2 2 2 2
4 4 4 3 4 4 4 5 7 6 6 5 5 5 4 4 4 4 4 3 3 3 3 3 3 3 3 3 3 3 3 3 2 2 2 2 2 2 2 2 2 2 2 2 2 2 2 1 1
Wind_Speed
16 14 7 3 3 5 7 5 3 1 2 4 6 5 5 6 5 6 3 4 7 7 10 10 9 10 10 10 10 11 11 11 11 10 11 11 11 11 12 12 12 12 13 13 13 13 13 14 14
13 9 4 3 4 6 6 5 3 3 4 3 3 3 4 5 6 6 4 5 7 8 10 9 10 10 10 11 11 11 11 11 10 10 10 11 11 11 11 11 12 12 12 12 12 12 12 12 13
10 8 4 4 5 6 3 1 4 6 4 2 2 5 4 4 5 4 5 5 6 8 10 10 11 10 11 11 11 11 11 10 11 10 10 10 10 10 10 10 10 11 11 12 12 12 12 12 12
5 3 4 5 8 6 3 2 5 4 3 3 2 5 4 5 4 5 6 5 7 8 10 11 11 11 11 11 11 11 10 10 10 10 10 10 10 10 10 10 10 10 11 11 11 12 11 11 11
4 4 5 7 9 5 1 2 2 1 2 2 1 3 4 4 8 7 6 5 7 7 10 10 11 10 10 10 11 11 10 10 10 10 10 10 10 10 11 10 10 10 11 11 11 11 11 11 10
3 4 5 8 7 5 2 2 1 0 2 2 0 2 4 6 7 6 5 6 7 8 9 9 10 10 10 10 10 10 10 10 9 9 10 10 10 10 10 10 10 10 10 10 10 10 10 10 9
3 4 7 7 5 4 1 3 2 2 0 1 2 2 5 6 6 5 6 6 7 8 8 7 8 9 10 10 10 9 9 9 9 9 9 9 9 9 9 9 9 9 10 10 10 9 9 9 9
3 4 6 6 6 4 2 3 3 4 3 4 5 1 5 6 6 5 5 6 6 7 6 6 7 8 8 8 9 9 8 9 9 9 9 9 8 9 8 8 8 8 9 9 9 9 8 8 8
3 4 5 5 3 1 3 2 2 3 2 2 3 4 6 10 6 6 5 5 5 5 5 5 5 6 6 6 7 7 7 7 7 7 7 7 6 7 7 7 8 8 8 8 7 7 7 7 7
2 3 4 5 5 3 3 2 1 0 1 0 3 6 7 8 6 5 5 5 4 4 4 4 3 4 5 5 5 5 5 5 5 5 5 5 5 6 7 8 8 8 8 8 7 6 5 4 4
2 3 4 6 6 5 4 3 2 3 3 1 2 5 6 6 5 4 4 4 4 4 4 3 3 4 4 3 4 4 4 4 5 6 5 5 5 6 6 6 6 6 6 5 5 6 5 5 5
3 4 4 4 5 4 4 3 3 3 3 2 2 3 4 4 4 5 5 4 4 4 4 3 3 4 4 3 3 4 3 4 4 5 6 5 4 4 4 4 5 5 5 4 4 4 5 6 6
4 3 4 4 3 4 4 5 4 4 1 1 1 2 3 3 3 2 3 4 4 4 4 3 3 3 3 3 2 3 3 3 4 4 5 6 4 4 4 4 5 5 5 4 4 4 4 5 5
2 3 4 4 4 4 5 5 4 5 2 2 3 3 3 4 3 3 3 3 3 4 4 3 3 3 3 3 2 2 3 4 4 5 5 5 5 4 4 4 4 5 5 4 4 4 4 4 4
2 4 5 6 6 3 3 5 7 7 5 5 4 4 4 4 4 3 3 4 4 4 4 3 3 3 3 2 2 2 3 4 4 4 5 5 5 4 4 3 3 4 4 4 4 4 4 3 3
5 4 4 3 4 2 3 7 4 3 4 4 4 4 4 4 4 3 3 3 4 4 4 3 3 3 3 3 2 2 3 3 4 4 4 4 4 4 4 3 3 4 4 3 2 2 2 2 2
4 4 5 3 2 2 4 6 3 3 4 4 4 3 3 3 3 3 3 3 3 4 5 4 4 4 3 3 3 3 2 3 3 4 4 4 4 4 3 3 3 3 3 2 2 2 1 2 2
4 5 5 5 1 3 6 8 5 4 5 5 5 4 3 3 3 3 4 4 3 3 4 5 4 3 4 3 2 2 2 2 2 3 3 3 3 3 3 2 3 3 2 1 1 2 2 1 1
6 6 7 6 3 4 8 10 7 5 5 5 5 4 4 3 3 3 3 5 4 4 4 5 5 4 3 3 2 2 2 1 1 1 3 3 3 3 3 2 2 2 1 1 1 1 1 1 1
6 7 7 5 3 5 8 11 8 5 5 5 5 4 4 2 2 2 3 4 4 4 4 4 4 4 4 3 2 2 2 1 1 1 2 2 3 3 2 2 2 1 1 1 1 1 1 0 1
6 6 6 6 7 5 6 8 6 4 4 4 4 4 3 3 3 3 2 2 3 3 3 3 4 4 4 3 2 2 2 1 1 1 1 1 2 3 3 2 2 2 2 2 1 1 2 1 1
6 4 5 6 6 4 3 5 5 4 4 5 5 4 3 3 3 3 2 2 3 3 3 3 3 4 3 3 3 3 3 3 2 2 2 2 3 3 3 2 2 2 1 2 1 1 1 1 1
3 5 6 6 6 6 6 5 6 4 5 5 4 3 2 2 3 2 2 1 2 3 3 3 3 3 3 3 3 3 2 2 2 2 3 3 2 3 3 3 2 2 1 2 1 1 1 1 1
2 4 5 4 2 5 6 6 5 3 5 4 3 3 3 2 2 2 2 2 2 3 3 3 3 3 3 3 3 3 3 2 2 2 2 2 2 2 2 3 2 2 2 2 2 2 2 1 1
2 2 1 2 3 5 4 4 5 2 0 3 4 3 3 3 3 2 2 1 1 2 3 3 3 3 3 3 3 3 3 3 3 3 2 2 2 2 3 3 3 2 2 2 2 2 3 2 2
3 2 2 3 3 3 2 5 3 1 3 4 4 3 3 2 2 2 1 1 1 2 2 2 3 3 3 3 3 3 2 2 2 2 2 2 2 2 2 3 3 3 3 3 3 3 3 2 3
2 3 3 3 4 4 5 4 1 2 2 2 2 2 1 1 1 1 1 1 1 2 2 2 2 2 3 3 3 3 3 2 2 1 1 2 2 2 2 2 3 3 3 3 3 2 3 3 3
3 1 0 2 3 5 5 4 3 2 1 0 1 1 1 2 1 1 1 1 1 1 1 1 1 2 2 2 2 2 3 2 2 1 2 2 1 1 2 2 2 2 3 3 2 2 2 3 3
3 2 3 3 3 3 4 3 2 3 2 1 2 2 2 2 1 0 0 1 1 1 1 1 1 1 1 1 1 2 2 2 2 2 2 2 2 2 2 3 3 3 3 3 3 3 2 3 3
2 4 4 3 4 4 4 5 2 3 2 2 1 2 2 2 2 1 0 1 1 0 0 1 1 1 1 1 1 1 2 2 2 2 2 2 2 2 3 3 3 4 3 3 3 3 3 3 4
Wind_Direction
308 287 264 257 249 232 239 245 258 106 60 37 22 24 46 31 35 97 134 83 92 99 105 100 90 89 89 89 88 88 86 84 82 80 81 80 77 74 73 70 69 70 72 74 75 75 73 71 70
300 294 276 242 242 237 233 225 221 58 77 70 43 21 66 67 73 97 104 77 92 95 100 101 95 91 89 87 87 88 86 84 83 82 82 82 79 76 74 73 71 72 73 75 76 77 76 73 71
282 275 261 240 238 245 242 90 97 85 80 70 68 34 39 61 80 88 93 99 92 91 97 101 99 95 92 89 86 86 86 83 83 83 82 80 80 78 75 75 75 75 77 77 80 79 77 76 72
286 250 244 246 247 256 268 55 85 112 93 53 105 93 80 42 58 90 98 101 96 90 92 100 102 97 92 89 87 84 84 84 82 80 79 81 79 77 74 76 77 79 80 81 80 79 79 76 73
261 254 237 238 247 257 285 62 80 127 140 146 163 111 92 80 88 97 103 101 98 93 93 102 103 99 93 90 88 84 82 83 84 83 81 80 80 77 74 75 76 79 81 81 79 79 78 76 71
267 251 244 237 236 228 219 90 89 338 119 124 145 125 104 109 102 106 106 102 95 94 95 103 105 99 94 91 89 87 83 81 82 83 82 79 78 80 78 77 78 78 80 83 81 80 78 76 71
280 271 261 261 259 252 242 63 27 341 17 41 329 120 124 114 105 109 107 103 97 94 95 99 104 100 94 91 89 88 89 84 82 83 81 80 77 77 79 79 82 82 82 82 81 80 79 77 74
305 290 266 262 254 266 33 57 18 8 5 15 2 45 126 121 108 102 100 99 99 97 96 94 97 99 100 95 94 91 92 89 87 87 84 83 81 75 76 80 84 87 86 83 80 78 77 78 74
281 261 263 277 281 336 41 44 25 8 23 26 40 47 102 119 123 122 113 102 98 94 96 94 93 94 100 104 103 99 95 93 91 89 87 86 84 83 78 80 84 88 90 89 81 81 77 81 73
240 252 274 331 351 3 359 354 14 189 250 285 100 96 114 127 139 145 140 130 120 115 106 94 90 95 96 103 106 100 98 92 88 85 82 81 81 87 88 88 87 83 83 82 77 76 76 72 65
259 269 310 339 353 2 345 324 308 262 257 244 158 136 135 144 148 157 157 142 141 129 116 110 91 91 91 95 99 87 84 81 73 66 63 71 80 83 86 88 85 81 77 67 67 69 56 52 50
260 300 313 318 342 339 319 307 296 287 290 351 93 138 151 166 172 169 161 151 141 132 126 119 100 95 92 92 92 95 85 79 73 66 59 57 59 60 64 68 70 70 68 55 54 61 55 50 48
251 270 302 315 331 316 301 283 289 270 290 12 103 166 184 182 184 159 154 150 139 134 129 119 105 105 101 95 83 88 82 85 85 79 67 62 59 58 57 59 58 63 61 47 43 50 56 53 47
325 316 292 285 276 274 269 268 264 255 217 206 205 197 184 178 177 175 163 154 141 131 133 132 122 102 101 94 91 89 89 82 81 79 76 73 71 66 62 62 57 57 53 43 43 45 53 56 49
293 284 273 255 243 237 269 259 233 230 216 213 213 202 188 188 177 183 179 158 145 141 129 131 134 110 108 104 94 86 95 101 86 81 79 74 72 72 72 73 65 57 56 50 50 45 50 52 43
247 247 252 230 222 214 235 259 230 187 202 218 223 219 198 190 170 167 165 144 142 143 141 141 133 127 122 115 102 86 91 99 101 100 93 83 78 77 77 82 75 62 62 53 61 61 59 49 33
231 255 266 269 202 218 233 264 235 194 212 231 234 229 213 200 181 166 170 152 147 147 146 146 145 147 137 120 108 100 95 94 103 107 100 94 89 85 82 84 80 75 73 62 55 59 65 56 25
278 281 284 277 292 281 261 265 257 239 228 238 235 232 222 213 197 176 173 156 149 148 148 149 152 146 138 126 117 112 101 88 94 108 111 110 98 92 85 81 78 81 87 71 65 70 62 72 24
299 288 288 294 320 292 270 271 264 247 238 243 234 227 217 205 171 166 162 148 149 153 152 153 156 152 142 138 144 144 146 137 117 103 120 122 118 114 103 89 92 92 113 118 96 85 91 55 31
284 281 289 304 318 304 289 280 269 244 238 240 237 232 203 185 163 161 150 142 144 147 155 157 158 154 151 156 158 149 138 137 123 93 104 130 133 134 132 118 125 120 128 125 118 106 99 102 71
281 277 288 299 310 282 287 289 252 236 211 216 231 230 198 185 173 170 157 148 149 148 152 159 158 155 154 151 133 121 108 111 122 148 169 160 147 137 135 142 138 138 146 163 164 149 133 177 253
283 311 300 294 294 279 272 290 266 224 217 222 219 213 190 174 154 153 158 173 163 152 135 142 148 149 154 154 160 169 180 189 201 186 184 175 170 156 155 154 151 145 146 154 179 154 149 154 205
294 321 300 281 272 284 253 253 264 210 218 219 205 178 143 134 130 131 125 157 140 132 131 135 144 152 154 155 168 172 179 185 168 172 174 184 184 175 172 171 165 158 157 160 159 164 164 175 181
322 312 291 271 258 263 237 233 269 221 220 193 158 133 119 101 114 114 95 87 106 123 130 142 148 156 160 170 184 179 187 175 159 172 186 195 192 186 185 185 175 175 173 185 189 185 185 193 195
276 306 313 277 239 247 227 232 251 249 145 143 136 130 106 89 92 98 100 101 109 137 145 155 161 165 174 181 190 187 190 186 187 186 193 202 201 212 207 196 191 194 194 194 188 191 200 200 202
234 237 227 262 274 286 254 237 251 85 55 81 100 86 80 84 95 106 111 138 168 151 146 160 171 175 175 187 190 177 185 190 201 201 195 201 209 214 206 207 200 199 199 204 198 201 206 198 204
234 233 282 298 288 279 249 235 237 95 81 93 110 110 131 122 117 128 129 136 142 141 152 178 181 180 181 186 185 185 185 191 200 215 215 210 206 205 205 212 204 200 205 207 198 208 211 202 204
294 291 232 215 266 271 263 238 232 186 200 177 82 77 103 99 76 109 147 163 144 144 171 180 174 190 186 181 192 195 183 188 198 214 231 236 233 209 207 214 212 200 204 208 204 212 217 213 213
200 225 228 238 247 255 283 274 352 136 128 90 53 52 33 17 17 358 150 120 112 131 165 172 182 183 179 187 192 191 182 189 195 213 223 226 228 210 216 217 209 201 206 207 200 205 208 225 232
244 228 202 213 251 241 265 273 358 67 92 79 35 32 16 354 334 312 41 111 105 96 233 199 206 190 184 182 188 196 190 183 190 213 227 220 226 218 217 216 212 209 205 198 196 210 216 221 230
Height
1501 1502 1503 1505 1506 1506 1503 1492 1485 1487 1490 1494 1495 1495 1498 1503 1507 1517 1517 1516 1517 1517 1517 1518 1520 1521 1522 1522 1523 1523 1524 1524 1525 1525 1525 1526 1526 1527 1527 1527 1528 1528 1528 1529 1529 1529 1530 1530 1530
1501 1502 1505 1504 1505 1508 1499 1489 1489 1490 1493 1495 1497 1498 1500 1506 1510 1513 1514 1516 1516 1517 1517 1518 1520 1521 1522 1522 1523 1524 1524 1525 1525 1526 1526 1527 1527 1528 1528 1528 1529 1529 1529 1530 1530 1530 1531 1531 1532
1501 1502 1504 1501 1501 1501 1495 1488 1489 1492 1494 1496 1499 1501 1504 1509 1511 1512 1514 1515 1516 1517 1517 1518 1520 1521 1522 1523 1524 1524 1525 1525 1526 1526 1527 1527 1528 1528 1529 1529 1529 1530 1530 1530 1531 1532 1532 1532 1533
1502 1503 1503 1501 1499 1492 1490 1489 1490 1493 1495 1498 1499 1503 1507 1511 1511 1512 1513 1515 1516 1516 1517 1518 1520 1521 1522 1523 1524 1524 1525 1526 1526 1527 1527 1528 1528 1529 1529 1530 1530 1530 1531 1531 1531 1532 1533 1533 1534
1502 1502 1501 1500 1495 1491 1489 1490 1492 1493 1496 1498 1500 1503 1508 1511 1511 1512 1513 1515 1516 1516 1517 1518 1520 1521 1522 1523 1523 1524 1525 1526 1526 1527 1527 1528 1529 1529 1529 1530 1530 1531 1531 1531 1532 1533 1533 1534 1534
1503 1500 1501 1499 1493 1490 1490 1491 1492 1494 1496 1499 1501 1504 1509 1511 1511 1512 1513 1514 1515 1516 1517 1518 1519 1521 1522 1523 1523 1524 1525 1526 1526 1527 1527 1528 1528 1529 1529 1530 1530 1531 1531 1532 1532 1533 1533 1534 1535
1503 1500 1499 1494 1493 1492 1491 1492 1494 1496 1497 1499 1501 1503 1508 1510 1511 1512 1513 1514 1515 1516 1517 1518 1519 1520 1521 1522 1523 1524 1525 1526 1526 1527 1527 1528 1528 1529 1529 1530 1530 1531 1532 1532 1533 1533 1534 1534 1535
1502 1501 1497 1494 1494 1494 1493 1494 1497 1498 1499 1501 1501 1503 1507 1509 1510 1511 1513 1514 1515 1516 1516 1518 1519 1520 1521 1522 1523 1524 1525 1525 1526 1527 1527 1527 1528 1528 1529 1529 1530 1531 1531 1532 1533 1533 1534 1534 1535
1502 1504 1500 1496 1494 1495 1495 1496 1499 1500 1501 1501 1503 1504 1506 1507 1510 1511 1512 1513 1514 1515 1516 1517 1518 1519 1520 1521 1522 1523 1524 1525 1526 1526 1527 1527 1528 1528 1529 1529 1530 1530 1531 1532 1533 1533 1534 1534 1535
1501 1503 1500 1496 1494 1495 1497 1498 1500 1501 1501 1502 1504 1505 1506 1506 1509 1510 1510 1512 1513 1514 1515 1516 1517 1518 1519 1520 1521 1522 1523 1524 1525 1525 1526 1526 1527 1527 1528 1529 1529 1530 1530 1531 1532 1533 1533 1534 1534
1500 1501 1499 1498 1497 1498 1499 1500 1500 1501 1502 1502 1504 1505 1506 1506 1507 1509 1510 1511 1512 1513 1514 1516 1517 1517 1518 1519 1520 1521 1522 1523 1524 1524 1525 1526 1526 1527 1527 1527 1528 1529 1530 1530 1531 1532 1532 1533 1533
1501 1500 1500 1500 1500 1500 1500 1500 1501 1501 1502 1502 1503 1504 1505 1506 1506 1508 1509 1510 1511 1512 1513 1514 1515 1516 1517 1518 1519 1520 1521 1522 1523 1523 1524 1525 1525 1525 1526 1527 1527 1528 1528 1529 1530 1530 1531 1532 1532
1500 1501 1501 1501 1501 1501 1501 1501 1501 1501 1501 1501 1502 1502 1504 1505 1506 1507 1508 1509 1510 1511 1512 1513 1514 1515 1516 1517 1518 1519 1520 1520 1521 1522 1523 1523 1524 1524 1525 1526 1526 1527 1527 1528 1528 1529 1530 1530 1531
1501 1501 1501 1501 1500 1501 1500 1500 1500 1499 1500 1500 1500 1501 1502 1503 1504 1505 1506 1507 1508 1509 1510 1511 1512 1513 1514 1516 1517 1518 1519 1520 1520 1521 1521 1522 1523 1523 1524 1524 1525 1525 1526 1527 1527 1528 1528 1529 1530
1501 1502 1500 1499 1498 1499 1499 1499 1498 1496 1497 1498 1499 1500 1501 1502 1502 1503 1504 1505 1506 1507 1508 1509 1510 1511 1513 1514 1515 1516 1517 1518 1519 1519 1520 1521 1521 1522 1523 1523 1524 1524 1524 1525 1526 1527 1527 1527 1528
1500 1501 1502 1497 1496 1497 1501 1500 1495 1495 1495 1496 1497 1498 1499 1499 1500 1501 1502 1503 1504 1505 1506 1507 1508 1509 1511 1512 1513 1514 1515 1517 1517 1518 1519 1519 1520 1521 1521 1522 1522 1523 1523 1524 1524 1525 1525 1526 1526
1500 1502 1499 1497 1494 1495 1498 1497 1494 1493 1494 1495 1495 1496 1497 1497 1498 1498 1500 1501 1502 1503 1504 1505 1506 1507 1509 1510 1511 1513 1514 1515 1515 1516 1517 1517 1518 1519 1519 1520 1520 1521 1521 1522 1522 1523 1523 1523 1524
1503 1500 1497 1497 1495 1495 1496 1494 1492 1492 1492 1492 1493 1494 1494 1495 1496 1496 1497 1498 1499 1500 1501 1503 1504 1505 1506 1508 1509 1510 1511 1512 1513 1514 1515 1516 1516 1517 1517 1518 1518 1519 1520 1520 1520 1521 1521 1522 1522
1500 1499 1499 1497 1495 1496 1495 1492 1490 1489 1490 1490 1490 1491 1492 1493 1494 1495 1495 1496 1496 1498 1499 1500 1502 1503 1504 1505 1506 1507 1509 1510 1511 1512 1513 1513 1514 1515 1515 1516 1516 1517 1517 1518 1518 1519 1519 1520 1520
1500 1501 1500 1497 1496 1496 1495 1491 1487 1486 1486 1487 1487 1488 1489 1491 1492 1492 1493 1494 1494 1495 1496 1498 1499 1500 1501 1503 1504 1505 1506 1508 1509 1510 1510 1511 1512 1512 1513 1513 1514 1515 1515 1515 1516 1517 1517 1517 1518
1500 1501 1500 1500 1497 1495 1496 1492 1485 1482 1483 1484 1485 1486 1487 1488 1489 1490 1490 1491 1492 1493 1494 1495 1496 1498 1499 1500 1502 1503 1504 1505 1506 1507 1508 1509 1509 1510 1511 1511 1512 1512 1513 1513 1513 1514 1515 1515 1516
1503 1500 1499 1500 1503 1502 1498 1502 1486 1482 1482 1482 1482 1483 1484 1486 1487 1488 1488 1489 1490 1491 1492 1493 1494 1495 1497 1498 1499 1500 1501 1502 1503 1504 1505 1506 1507 1507 1508 1508 1509 1510 1510 1510 1511 1511 1512 1513 1513
1503 1500 1500 1499 1501 1504 1498 1501 1489 1480 1481 1480 1480 1481 1482 1484 1485 1486 1487 1488 1488 1489 1490 1491 1492 1493 1494 1495 1496 1497 1498 1499 1500 1501 1502 1503 1504 1504 1505 1505 1506 1506 1507 1507 1508 1508 1509 1509 1510
1502 1502 1500 1499 1503 1508 1496 1497 1488 1480 1477 1477 1478 1480 1481 1483 1484 1485 1485 1486 1486 1487 1487 1488 1489 1490 1492 1493 1494 1494 1495 1496 1497 1498 1499 1500 1500 1501 1501 1502 1503 1503 1504 1504 1505 1505 1506 1506 1507
1504 1508 1510 1508 1508 1500 1488 1491 1487 1476 1473 1474 1477 1479 1480 1482 1483 1483 1484 1484 1485 1485 1485 1486 1487 1488 1489 1490 1491 1491 1492 1493 1494 1494 1495 1496 1497 1498 1498 1499 1499 1500 1500 1501 1502 1502 1502 1503 1503
1504 1505 1511 1511 1504 1495 1490 1490 1483 1475 1474 1474 1476 1478 1480 1481 1482 1482 1483 1483 1483 1483 1483 1484 1485 1486 1487 1487 1488 1489 1489 1490 1491 1492 1492 1493 1494 1494 1495 1495 1496 1496 1497 1498 1498 1499 1499 1499 1500
1502 1505 1502 1507 1506 1505 1492 1482 1478 1476 1476 1476 1477 1479 1480 1481 1481 1481 1481 1481 1481 1481 1481 1482 1483 1483 1484 1485 1485 1486 1487 1487 1488 1489 1490 1490 1491 1491 1492 1492 1492 1492 1493 1494 1495 1495 1495 1496 1496
1503 1503 1507 1509 1508 1502 1487 1482 1481 1479 1477 1478 1478 1479 1479 1480 1480 1480 1480 1480 1479 1480 1480 1480 1480 1481 1482 1482 1482 1483 1483 1484 1485 1486 1487 1487 1487 1488 1488 1488 1489 1489 1490 1490 1491 1491 1492 1492 1492
1505 1505 1505 1505 1503 1504 1497 1488 1477 1476 1477 1478 1479 1479 1480 1479 1479 1479 1478 1478 1478 1478 1478 1478 1478 1478 1479 1479 1479 1480 1480 1481 1482 1483 1483 1483 1484 1484 1484 1485 1485 1485 1486 1487 1487 1487 1488 1488 1488
1501 1501 1504 1508 1506 1500 1499 1492 1477 1476 1476 1477 1478 1479 1479 1479 1478 1478 1477 1476 1476 1476 1476 1476 1476 1476 1476 1476 1477 1477 1477 1478 1479 1479 1480 1480 1480 1480 1481 1481 1481 1482 1482 1483 1483 1484 1484 1484 1484